Flag Weather past 2 weeks in Kansas City, Missouri, U.S.A.

Now
49 °F

Overcast.


Feels Like: 44 °F
Forecast: 35 / 50 °F
Wind: 12 mph from North

Location: Kansas City Downtown Airport

Current Time: Oct 31, 2014 at 4:55:49 AM

Latest Report: Oct 31, 2014 at 3:54 AM


Visibility: 10 mi

Pressure: 30.29 "Hg

Humidity: 64%

Dew point: 37 °F

Location of Kansas CityLocation

Historic Weather in Kansas City — Graph

°F

Kansas City temperature yesterday

Maximum temperature yesterday: 69 °F (at 3:54 PM)
Minimum temperature yesterday: 49 °F (at 1:54 AM)
Average temperature yesterday: 58 °F

Past Weeks' High & Low Weather Summary

 TemperatureHumidityPressure
High87 °F (Oct 26, 2:54 PM)100% (Oct 25, 7:03 AM)31.00 "Hg (Oct 25, 7:03 AM)
Low41 °F (Oct 29, 6:54 AM)27% (Oct 28, 1:54 PM)29.56 "Hg (Oct 27, 7:54 AM)
Average61 °F64%30.01 "Hg
* Reported Oct 16 2:54 AM — Oct 31 2:54 AM, Kansas City, Weather by CustomWeather, © 2014

Note: Actual official high and low records may vary slightly from our data, if they occured in-between our weather recording intervals... More about our weather records

Advertising

Kansas City weather history for previous 24 hours

 ConditionsComfort  
Time TempWeatherWind HumidityBarometerVisibility
2:54 AM
Oct 31
51 °FOvercast.22 mph63%30.25 "Hg10 mi
1:54 AM52 °FPassing clouds.13 mph64%30.24 "Hg10 mi
12:54 AM52 °FPassing clouds.9 mph66%30.22 "Hg10 mi
11:54 PM
Oct 30
53 °FClear.12 mph61%30.20 "Hg10 mi
10:54 PM55 °FClear.13 mph59%30.17 "Hg10 mi
9:54 PM58 °FClear.10 mph54%30.14 "Hg10 mi
8:54 PM59 °FClear.8 mph51%30.11 "Hg10 mi
7:54 PM60 °FPassing clouds.8 mph52%30.10 "Hg10 mi
6:54 PM62 °FPassing clouds.8 mph46%30.07 "Hg10 mi
5:54 PM65 °FSunny.15 mph40%30.04 "Hg10 mi
4:54 PM67 °FSunny.17 mph36%30.02 "Hg10 mi
3:54 PM69 °FSunny.14 mph33%30.00 "Hg10 mi
2:54 PM68 °FSunny.15 mph35%29.98 "Hg10 mi
1:54 PM68 °FSunny.14 mph32%29.99 "Hg10 mi
12:54 PM67 °FSunny.12 mph37%30.00 "Hg10 mi
11:54 AM64 °FSunny.10 mph43%30.00 "Hg10 mi
10:54 AM60 °FSunny.7 mph52%30.01 "Hg10 mi
9:54 AM56 °FOvercast.5 mph60%30.02 "Hg10 mi
8:54 AM55 °FMore clouds than sun.5 mph59%30.02 "Hg10 mi
7:54 AM54 °FPassing clouds.6 mph59%30.01 "Hg10 mi
6:54 AM52 °FOvercast.No wind64%30.00 "Hg10 mi
5:54 AM49 °FPassing clouds.7 mph66%29.99 "Hg10 mi
4:54 AM49 °FClear.8 mph64%30.01 "Hg10 mi
Weather by CustomWeather, © 2014

See weather overviewHow to use our weather pages